Powrót do katalogu

STARLINK-35869

AktywnyŁącznośćVLEO
NORAD 66353·PAYLOAD·🇺🇸 United States

Wystrzelony Nov 6, 2025 z Vandenberg Space Force Base

Loading…

Następne Przeloty (najbliższe 24 godziny)

TLE

ŚwieżeSource: CelesTrak SupGP

Epoka: Sep 14, 2026, 23:12 UTC

1 66353C 25254F   26257.96715278  .00032909  00000+0  97252-3 0  2575
2 66353  53.1577  71.3906 0001189  83.8488 200.0913 15.34366899    17

Śledź STARLINK-35869 w czasie rzeczywistym z AllMySat

Download on the App Store